Tracking 29494 objects as of 8-Sep-2024
HD Live streaming from Space Station
objects crossing your sky now

FENGYUN 1C DEB

Track FENGYUN 1C DEB now!
10-day predictions


NORAD ID: 33748
Int'l Code: 1999-025DJM
Perigee: 778.3 km
Apogee: 834.2 km
Inclination: 98.6 °
Period: 100.9 minutes
Semi major axis: 7177 km
RCS: 0.0021 m2 (small)
Launch date: May 10, 1999
Source: People's Republic of China (PRC)
Launch site: Taiyaun Space Center, China (TSC)

Note: This is SATELLITE DEBRIS
Your satellite tracking list
Your tracking list is empty




NASA's NSSDC Master Catalog

Two Line Element Set (TLE):
1 33748U 99025DJM 24249.09481636  .00012189  00000-0  49019-2 0  9994
2 33748  98.6296 299.1283 0038938 163.7440 196.5000 14.27804901847654
Source of the keplerian elements: AFSPC